Location: Bouchavesnes-Bergen
(49.9859°N, 2.9203°E)
Time: 22:27:44
(UTC+00:00)

IDEFIX/ARIANE 42P - Pass Details

Date: 26 June 2021
Orbit: 784 x 803 km, 98.4° (Epoch: 30 July)

Event Time Altitude Azimuth Distance (km) Brightness Sun altitude
Rises 02:07:43 0° 18° (NNE) 3,313 7.6 -10.7°
Reaches altitude 10° 02:10:09 10° 24° (NNE) 2,376 6.6 -10.5°
Maximum altitude 02:15:13 48° 99° (E) 1,032 3.4 -10.0°
Drops below altitude 10° 02:20:13 10° 173° (S) 2,347 4.6 -9.6°
Enters shadow 02:21:22 - 177° (S) 2,786 4.9 -9.5°
